TimeCDT,TemperatureF,Dew PointF,Humidity,Sea Level PressureIn,VisibilityMPH,Wind Direction,Wind SpeedMPH,Gust SpeedMPH,PrecipitationIn,Events,Conditions,WindDirDegrees,DateUTC
12:53 AM,36.0,25.0,64,30.21,10.0,North,25.3,32.2,N/A,,Clear,360,2014-03-12 05:53:00
1:53 AM,35.1,24.1,64,30.22,10.0,North,25.3,-,N/A,,Clear,360,2014-03-12 06:53:00
2:53 AM,34.0,24.1,67,30.22,10.0,North,21.9,-,N/A,,Clear,360,2014-03-12 07:53:00
3:53 AM,33.1,24.1,70,30.25,10.0,North,16.1,-,N/A,,Clear,360,2014-03-12 08:53:00
4:53 AM,32.0,23.0,69,30.26,10.0,North,17.3,-,N/A,,Clear,360,2014-03-12 09:53:00
5:53 AM,30.0,21.9,72,30.29,10.0,North,10.4,-,N/A,,Clear,350,2014-03-12 10:53:00
6:53 AM,28.9,21.0,72,30.34,10.0,NNW,8.1,-,N/A,,Clear,340,2014-03-12 11:53:00
7:53 AM,26.1,19.0,75,30.38,10.0,NW,6.9,-,N/A,,Clear,310,2014-03-12 12:53:00
8:53 AM,28.0,19.0,69,30.40,10.0,NNW,10.4,-,N/A,,Clear,330,2014-03-12 13:53:00
9:53 AM,35.1,19.9,54,30.41,10.0,North,16.1,21.9,N/A,,Clear,350,2014-03-12 14:53:00
10:53 AM,39.9,17.1,40,30.41,10.0,North,16.1,-,N/A,,Clear,360,2014-03-12 15:53:00
11:53 AM,43.0,15.1,32,30.40,10.0,NNW,15.0,-,N/A,,Clear,340,2014-03-12 16:53:00
12:53 PM,45.0,10.9,25,30.38,10.0,North,13.8,21.9,N/A,,Clear,360,2014-03-12 17:53:00
1:53 PM,48.9,8.1,19,30.36,10.0,North,8.1,17.3,N/A,,Clear,360,2014-03-12 18:53:00
2:53 PM,50.0,5.0,16,30.32,10.0,North,9.2,-,N/A,,Clear,10,2014-03-12 19:53:00
3:53 PM,51.1,3.9,15,30.28,10.0,Variable,5.8,-,N/A,,Clear,0,2014-03-12 20:53:00
4:53 PM,53.1,5.0,14,30.26,10.0,Calm,Calm,-,N/A,,Clear,0,2014-03-12 21:53:00
5:53 PM,54.0,3.0,13,30.24,10.0,NNW,8.1,-,N/A,,Clear,330,2014-03-12 22:53:00
6:53 PM,53.1,5.0,14,30.23,10.0,Variable,5.8,-,N/A,,Clear,0,2014-03-12 23:53:00
7:53 PM,45.0,10.0,24,30.26,10.0,SW,6.9,-,N/A,,Clear,220,2014-03-13 00:53:00
8:53 PM,35.1,12.9,40,30.29,10.0,SSW,9.2,-,N/A,,Clear,210,2014-03-13 01:53:00
9:53 PM,33.1,9.0,37,30.29,10.0,SW,9.2,-,N/A,,Clear,220,2014-03-13 02:53:00
10:53 PM,30.9,12.0,46,30.28,10.0,SW,9.2,-,N/A,,Clear,220,2014-03-13 03:53:00
11:53 PM,35.1,12.0,39,30.25,10.0,WSW,10.4,-,N/A,,Clear,240,2014-03-13 04:53:00